Orbital Elements at Epoch 2459000.5 (2020-May-31.0) TDB
Reference: JPL 19 (heliocentric ecliptic J2000)
Element | Value | Uncertainty (1-sigma) | Units |
e | .04118740365285975 | 2.1229e-07 | |
a | 2.523519824268601 | 1.0883e-08 | au |
q | 2.419582594640456 | 5.3552e-07 | au |
i | 6.480397002512174 | 4.9589e-06 | deg |
node | 54.07229212105454 | 4.2451e-05 | deg |
peri | 80.05980035161808 | 0.00028251 | deg |
M | 308.5267084639239 | 0.00027012 | deg |
tp | 2459209.857222545576 (2020-Dec-26.35722255) | 0.0010987 | TDB |
period | 1464.227327750817 4.01 | 9.4723e-06 2.593e-08 | d yr |
n | .2458634620301699 | 1.5905e-09 | deg/d |
Q | 2.627457053896745 | 1.1332e-08 | au |
|
| | Orbit Determination Parameters
Additional Information
|